軌道要素
Epoch 2022 Jan. 21.0 TT = JDT 2459600.5
T 2022 Jan. 31.15344 TT Rudenko
q 1.2528513 (2000.0) P Q
z +0.0011807 Peri. 201.19426 -0.09394992 +0.49789332
+/-0.0000875 Node 285.52145 +0.99253730 +0.11445846
e 0.9985207 Incl. 116.52159 +0.07773757 -0.85965196
From 313 observations 2022 Jan. 2-Feb. 6, mean residual 0".5.
|